No particular awareness of the weather is required.    There are no Weather-warnings


Meteo18 Weather Cam more information Meteo18 Weather Cam


Thunder radar more information blitzortung!


Rain radar more information rain snow radar


Visit our other weather sites:

Template documentation
and downloads

And another site



Weather Underground History page Text

Daily Summary for March 15, 2017 Units:  English    Metric   Both
« Previous Day
Next Day »
Daily Weekly Monthly Yearly Custom
  High: Low: Average:
Temperature: TemperatureC °F 6.3 °F 8.9 °F
Dew Point: DewpointC °F 5.0 °F 6.8 °F
Humidity: Humidity % 75 % 86 %
Wind Speed: WindSpeedKMH mph 0.0 mph 5.9 mph
Wind Gust: WindSpeedGustKMH mph - -
Wind:- - East
Pressure: PressurehPa in 1029.3 in -
Precipitation: 0.0 in    
Historical Graphs
 
 
Tabular Data for March 15, 2017
Time Temperature Dew Point Pressure Wind Wind Speed Wind Gust Humidity Rainfall Rate (Hourly)
TemperatureC °F DewpointC °F PressurehPa in Calm     Humidity % HourlyPrecipMM in
00:02 8.4 °F 5.0 °F 1034.1 in North 1.6 mph 6.4 mph 79 % 0.0 in
00:07 8.3 °F 5.1 °F 1034.1 in Calm   6.4 mph 80 % 0.0 in
00:12 8.2 °F 5.1 °F 1034.1 in NW 1.6 mph 4.8 mph 81 % 0.0 in
00:17 8.2 °F 5.3 °F 1034.1 in Calm   4.8 mph 82 % 0.0 in
00:22 8.2 °F 5.5 °F 1034.1 in Calm   4.8 mph 83 % 0.0 in
00:32 8.1 °F 5.6 °F 1034.1 in Calm   3.2 mph 84 % 0.0 in
00:37 8.0 °F 5.6 °F 1034.1 in Calm   1.6 mph 85 % 0.0 in
00:42 7.8 °F 5.4 °F 1034.1 in NNW 1.6 mph 1.6 mph 85 % 0.0 in
00:52 7.8 °F 5.8 °F 1034.1 in NNW 1.6 mph 11.3 mph 87 % 0.0 in
00:57 7.8 °F 5.8 °F 1034.1 in NNE 3.2 mph 11.3 mph 87 % 0.0 in
01:02 7.7 °F 5.7 °F 1034.1 in NNE 1.6 mph 11.3 mph 87 % 0.0 in
01:12 7.5 °F 5.6 °F 1034.1 in NNE 3.2 mph 9.7 mph 88 % 0.0 in
01:17 7.4 °F 5.7 °F 1034.1 in NE 4.8 mph 8.0 mph 89 % 0.0 in
01:27 7.7 °F 6.0 °F 1034.1 in NNE 1.6 mph 9.7 mph 89 % 0.0 in
01:32 7.7 °F 6.0 °F 1033.7 in NNE 6.4 mph 11.3 mph 89 % 0.0 in
01:42 7.4 °F 5.7 °F 1034.1 in NNE 3.2 mph 11.3 mph 89 % 0.0 in
01:47 7.4 °F 5.9 °F 1034.1 in NNE 1.6 mph 11.3 mph 90 % 0.0 in
01:52 7.4 °F 5.9 °F 1034.1 in NE 3.2 mph 11.3 mph 90 % 0.0 in
01:57 7.3 °F 5.8 °F 1034.1 in NW 3.2 mph 11.3 mph 90 % 0.0 in
02:02 7.2 °F 5.7 °F 1034.1 in Calm   11.3 mph 90 % 0.0 in
02:07 7.2 °F 5.8 °F 1034.1 in NNE 3.2 mph 8.0 mph 91 % 0.0 in
02:12 7.1 °F 5.7 °F 1034.1 in North 1.6 mph 8.0 mph 91 % 0.0 in
02:17 7.0 °F 5.6 °F 1034.1 in NE 4.8 mph 9.7 mph 91 % 0.0 in
02:22 7.1 °F 5.7 °F 1034.1 in North 6.4 mph 11.3 mph 91 % 0.0 in
02:27 7.1 °F 5.7 °F 1033.7 in NNW 4.8 mph 11.3 mph 91 % 0.0 in
02:32 7.1 °F 5.9 °F 1033.7 in NNW 6.4 mph 11.3 mph 92 % 0.0 in
02:37 7.1 °F 5.7 °F 1033.7 in NW 6.4 mph 11.3 mph 91 % 0.0 in
02:42 7.0 °F 5.8 °F 1033.7 in NW 6.4 mph 11.3 mph 92 % 0.0 in
02:47 6.9 °F 5.7 °F 1033.7 in NE 6.4 mph 12.9 mph 92 % 0.0 in
02:57 6.7 °F 5.5 °F 1033.4 in North 8.0 mph 12.9 mph 92 % 0.0 in
03:02 6.7 °F 5.5 °F 1033.4 in North 8.0 mph 11.3 mph 92 % 0.0 in
03:07 6.7 °F 5.6 °F 1033.4 in NE 6.4 mph 14.5 mph 93 % 0.0 in
03:12 6.6 °F 5.5 °F 1033.4 in NNE 4.8 mph 14.5 mph 93 % 0.0 in
03:17 6.6 °F 5.5 °F 1033.4 in NW 8.0 mph 12.9 mph 93 % 0.0 in
03:22 6.6 °F 5.5 °F 1033.4 in NNE 3.2 mph 12.9 mph 93 % 0.0 in
03:27 6.7 °F 5.6 °F 1033.4 in NNE 3.2 mph 14.5 mph 93 % 0.0 in
03:32 6.6 °F 5.5 °F 1033.4 in NNE 4.8 mph 14.5 mph 93 % 0.0 in
03:42 6.4 °F 5.4 °F 1033.4 in NNE 6.4 mph 11.3 mph 93 % 0.0 in
03:47 6.4 °F 5.4 °F 1033.1 in ENE 1.6 mph 11.3 mph 93 % 0.0 in
03:52 6.3 °F 5.3 °F 1033.4 in NNW 4.8 mph 11.3 mph 93 % 0.0 in
03:57 6.3 °F 5.4 °F 1033.1 in NNE 8.0 mph 12.9 mph 94 % 0.0 in
04:02 6.3 °F 5.4 °F 1033.1 in NNW 1.6 mph 12.9 mph 94 % 0.0 in
04:07 6.3 °F 5.4 °F 1033.1 in NNW 3.2 mph 12.9 mph 94 % 0.0 in
04:17 6.4 °F 5.5 °F 1033.1 in NE 8.0 mph 14.5 mph 94 % 0.0 in
04:22 6.4 °F 5.5 °F 1033.1 in NNE 4.8 mph 14.5 mph 94 % 0.0 in
04:32 6.4 °F 5.5 °F 1033.1 in NE 9.7 mph 11.3 mph 94 % 0.0 in
04:37 6.4 °F 5.5 °F 1033.1 in North 4.8 mph 11.3 mph 94 % 0.0 in
04:42 6.4 °F 5.5 °F 1033.1 in NNE 6.4 mph 16.1 mph 94 % 0.0 in
04:47 6.4 °F 5.5 °F 1033.1 in NNE 6.4 mph 16.1 mph 94 % 0.0 in
04:52 6.4 °F 5.7 °F 1033.1 in NNE 16.1 mph 16.1 mph 95 % 0.0 in
04:57 6.4 °F 5.5 °F 1033.1 in East 3.2 mph 17.7 mph 94 % 0.0 in
05:02 6.4 °F 5.7 °F 1033.1 in NNE 3.2 mph 17.7 mph 95 % 0.0 in
05:12 6.4 °F 5.7 °F 1033.1 in NNE 4.8 mph 20.9 mph 95 % 0.0 in
05:17 6.4 °F 5.7 °F 1033.1 in NNE 3.2 mph 20.9 mph 95 % 0.0 in
05:22 6.6 °F 5.9 °F 1033.1 in WNW 6.4 mph 16.1 mph 95 % 0.0 in
05:42 6.8 °F 6.1 °F 1033.1 in NNW 4.8 mph 16.1 mph 95 % 0.0 in
05:47 6.8 °F 6.1 °F 1033.1 in NNE 3.2 mph 16.1 mph 95 % 0.0 in
05:52 6.9 °F 6.2 °F 1033.1 in NNE 1.6 mph 12.9 mph 95 % 0.0 in
05:57 6.9 °F 6.2 °F 1033.1 in North 4.8 mph 11.3 mph 95 % 0.0 in
06:02 7.0 °F 6.3 °F 1033.1 in Calm   9.7 mph 95 % 0.0 in
06:12 7.2 °F 6.5 °F 1033.1 in NNE 4.8 mph 9.7 mph 95 % 0.0 in
06:17 7.2 °F 6.5 °F 1033.1 in NNW 3.2 mph 11.3 mph 95 % 0.0 in
06:22 7.2 °F 6.5 °F 1033.1 in NE 1.6 mph 11.3 mph 95 % 0.0 in
06:27 7.3 °F 6.6 °F 1033.1 in NE 3.2 mph 11.3 mph 95 % 0.0 in
06:32 7.3 °F 6.4 °F 1033.1 in North 3.2 mph 11.3 mph 94 % 0.0 in
06:37 7.3 °F 6.4 °F 1033.1 in NW 1.6 mph 6.4 mph 94 % 0.0 in
06:42 7.3 °F 6.4 °F 1033.1 in NW 3.2 mph 6.4 mph 94 % 0.0 in
06:52 7.3 °F 6.4 °F 1033.1 in NNE 4.8 mph 8.0 mph 94 % 0.0 in
07:02 7.3 °F 6.4 °F 1033.1 in North 1.6 mph 8.0 mph 94 % 0.0 in
07:12 7.4 °F 6.5 °F 1033.1 in NNE 3.2 mph 6.4 mph 94 % 0.0 in
07:17 7.4 °F 6.5 °F 1033.1 in NE 11.3 mph 11.3 mph 94 % 0.0 in
07:22 7.6 °F 6.7 °F 1033.1 in NE 1.6 mph 4.8 mph 94 % 0.0 in
07:32 7.7 °F 6.8 °F 1033.1 in NNE 9.7 mph 11.3 mph 94 % 0.0 in
07:42 7.8 °F 6.7 °F 1033.1 in NNE 8.0 mph 11.3 mph 93 % 0.0 in
07:52 7.8 °F 6.7 °F 1033.1 in NE 11.3 mph 12.9 mph 93 % 0.0 in
08:02 8.0 °F 6.8 °F 1033.1 in NE 9.7 mph 16.1 mph 92 % 0.0 in
08:12 8.1 °F 6.9 °F 1033.1 in NE 8.0 mph 16.1 mph 92 % 0.0 in
08:17 8.1 °F 6.9 °F 1033.1 in NNE 1.6 mph 12.9 mph 92 % 0.0 in
08:22 8.2 °F 6.8 °F 1033.4 in NNE 4.8 mph 11.3 mph 91 % 0.0 in
08:32 8.2 °F 6.8 °F 1033.4 in NE 6.4 mph 11.3 mph 91 % 0.0 in
08:37 8.2 °F 6.8 °F 1033.4 in ENE 3.2 mph 9.7 mph 91 % 0.0 in
08:42 8.3 °F 6.9 °F 1033.4 in NNE 4.8 mph 9.7 mph 91 % 0.0 in
08:47 8.3 °F 6.9 °F 1033.4 in NNE 4.8 mph 14.5 mph 91 % 0.0 in
08:52 8.3 °F 6.9 °F 1033.4 in NE 12.9 mph 14.5 mph 91 % 0.0 in
08:57 8.4 °F 6.9 °F 1033.4 in NE 4.8 mph 14.5 mph 90 % 0.0 in
09:02 8.4 °F 7.0 °F 1033.4 in NNE 8.0 mph 16.1 mph 91 % 0.0 in
09:07 8.4 °F 6.9 °F 1033.4 in NNE 8.0 mph 16.1 mph 90 % 0.0 in
09:12 8.6 °F 7.1 °F 1033.7 in NNE 6.4 mph 16.1 mph 90 % 0.0 in
09:17 8.6 °F 7.1 °F 1033.7 in NE 8.0 mph 12.9 mph 90 % 0.0 in
09:22 8.7 °F 7.2 °F 1033.7 in NE 8.0 mph 12.9 mph 90 % 0.0 in
09:32 8.7 °F 7.0 °F 1033.7 in NE 9.7 mph 14.5 mph 89 % 0.0 in
09:37 8.8 °F 7.1 °F 1033.7 in ENE 8.0 mph 16.1 mph 89 % 0.0 in
09:42 8.8 °F 6.9 °F 1033.7 in NNE 12.9 mph 17.7 mph 88 % 0.0 in
09:47 8.8 °F 6.8 °F 1033.7 in NNE 16.1 mph 19.3 mph 87 % 0.0 in
09:52 8.8 °F 6.8 °F 1033.7 in NNE 8.0 mph 20.9 mph 87 % 0.0 in
09:57 8.9 °F 7.0 °F 1033.7 in NE 9.7 mph 20.9 mph 88 % 0.0 in
10:02 8.9 °F 6.9 °F 1033.7 in NNE 12.9 mph 20.9 mph 87 % 0.0 in
10:12 9.0 °F 7.0 °F 1033.7 in NE 8.0 mph 19.3 mph 87 % 0.0 in
10:17 9.1 °F 6.9 °F 1033.7 in NNE 6.4 mph 19.3 mph 86 % 0.0 in
10:22 9.2 °F 7.1 °F 1033.7 in NE 3.2 mph 17.7 mph 87 % 0.0 in
10:27 9.2 °F 7.0 °F 1033.7 in ENE 12.9 mph 17.7 mph 86 % 0.0 in
10:32 9.3 °F 7.1 °F 1033.7 in NE 4.8 mph 17.7 mph 86 % 0.0 in
10:42 9.3 °F 6.9 °F 1033.7 in NNE 8.0 mph 16.1 mph 85 % 0.0 in
10:47 9.4 °F 7.0 °F 1033.7 in NE 3.2 mph 16.1 mph 85 % 0.0 in
10:52 9.5 °F 7.1 °F 1033.7 in NE 4.8 mph 17.7 mph 85 % 0.0 in
10:57 9.6 °F 7.2 °F 1033.7 in NNE 6.4 mph 17.7 mph 85 % 0.0 in
11:02 9.5 °F 6.9 °F 1033.7 in North 11.3 mph 17.7 mph 84 % 0.0 in
11:12 9.7 °F 7.1 °F 1033.7 in ENE 4.8 mph 20.9 mph 84 % 0.0 in
11:17 9.6 °F 7.0 °F 1033.7 in NE 6.4 mph 17.7 mph 84 % 0.0 in
11:22 9.6 °F 7.0 °F 1033.7 in NE 6.4 mph 19.3 mph 84 % 0.0 in
11:27 9.5 °F 6.9 °F 1033.7 in North 8.0 mph 19.3 mph 84 % 0.0 in
11:32 9.6 °F 7.0 °F 1033.7 in North 6.4 mph 20.9 mph 84 % 0.0 in
11:42 9.7 °F 7.1 °F 1033.7 in East 11.3 mph 17.7 mph 84 % 0.0 in
11:47 9.7 °F 7.3 °F 1033.7 in ENE 4.8 mph 17.7 mph 85 % 0.0 in
11:52 9.7 °F 7.1 °F 1033.7 in NE 9.7 mph 17.7 mph 84 % 0.0 in
11:57 9.6 °F 7.2 °F 1033.4 in NE 16.1 mph 19.3 mph 85 % 0.0 in
12:02 9.5 °F 7.1 °F 1033.4 in NNE 12.9 mph 19.3 mph 85 % 0.0 in
12:07 9.4 °F 7.0 °F 1033.4 in North 8.0 mph 19.3 mph 85 % 0.0 in
12:12 9.4 °F 7.0 °F 1033.4 in NE 19.3 mph 19.3 mph 85 % 0.0 in
12:17 9.3 °F 6.9 °F 1033.4 in NNE 6.4 mph 19.3 mph 85 % 0.0 in
12:22 9.4 °F 7.2 °F 1033.4 in NE 6.4 mph 22.5 mph 86 % 0.0 in
12:27 9.4 °F 7.2 °F 1033.4 in North 9.7 mph 22.5 mph 86 % 0.0 in
12:32 9.4 °F 7.2 °F 1033.4 in NNE 4.8 mph 22.5 mph 86 % 0.0 in
12:37 9.3 °F 6.9 °F 1033.4 in NE 11.3 mph 16.1 mph 85 % 0.0 in
12:42 9.3 °F 7.1 °F 1033.4 in NE 8.0 mph 19.3 mph 86 % 0.0 in
12:52 9.4 °F 7.3 °F 1033.1 in NNE 9.7 mph 17.7 mph 87 % 0.0 in
12:57 9.4 °F 7.3 °F 1033.1 in NE 6.4 mph 14.5 mph 87 % 0.0 in
13:02 9.4 °F 7.2 °F 1033.1 in NE 3.2 mph 14.5 mph 86 % 0.0 in
13:12 9.4 °F 7.2 °F 1033.1 in NNE 8.0 mph 14.5 mph 86 % 0.0 in
13:17 9.4 °F 7.0 °F 1033.1 in NNE 12.9 mph 17.7 mph 85 % 0.0 in
13:22 9.4 °F 7.0 °F 1033.1 in NNW 9.7 mph 17.7 mph 85 % 0.0 in
13:27 9.4 °F 7.0 °F 1033.1 in NE 11.3 mph 17.7 mph 85 % 0.0 in
13:37 9.4 °F 7.0 °F 1033.1 in NNW 4.8 mph 24.1 mph 85 % 0.0 in
13:42 9.4 °F 7.0 °F 1032.7 in North 4.8 mph 24.1 mph 85 % 0.0 in
13:47 9.4 °F 7.0 °F 1032.7 in North 3.2 mph 24.1 mph 85 % 0.0 in
13:57 9.6 °F 7.0 °F 1032.7 in NNE 14.5 mph 19.3 mph 84 % 0.0 in
14:02 9.7 °F 7.1 °F 1032.7 in NE 6.4 mph 19.3 mph 84 % 0.0 in
14:07 9.8 °F 7.2 °F 1032.7 in NE 12.9 mph 17.7 mph 84 % 0.0 in
14:12 9.8 °F 7.2 °F 1032.4 in NNE 8.0 mph 17.7 mph 84 % 0.0 in
14:17 9.9 °F 7.1 °F 1032.4 in NE 12.9 mph 16.1 mph 83 % 0.0 in
14:22 9.8 °F 7.1 °F 1032.4 in ENE 11.3 mph 17.7 mph 83 % 0.0 in
14:27 9.9 °F 7.3 °F 1032.1 in NNE 8.0 mph 17.7 mph 84 % 0.0 in
14:32 10.1 °F 7.3 °F 1032.1 in ENE 3.2 mph 17.7 mph 83 % 0.0 in
14:37 10.1 °F 7.2 °F 1032.1 in ENE 4.8 mph 17.7 mph 82 % 0.0 in
14:42 10.2 °F 7.4 °F 1032.1 in NNE 6.4 mph 17.7 mph 83 % 0.0 in
14:47 10.3 °F 7.5 °F 1032.1 in NE 6.4 mph 14.5 mph 83 % 0.0 in
14:57 10.4 °F 7.5 °F 1032.1 in ENE 6.4 mph 14.5 mph 82 % 0.0 in
15:02 10.5 °F 7.6 °F 1031.7 in ENE 12.9 mph 17.7 mph 82 % 0.0 in
15:07 10.6 °F 7.5 °F 1031.7 in North 17.7 mph 17.7 mph 81 % 0.0 in
15:17 10.8 °F 7.7 °F 1031.7 in NE 8.0 mph 19.3 mph 81 % 0.0 in
15:22 10.7 °F 7.6 °F 1031.7 in ENE 8.0 mph 19.3 mph 81 % 0.0 in
15:32 10.8 °F 7.7 °F 1031.7 in North 11.3 mph 20.9 mph 81 % 0.0 in
15:37 10.8 °F 7.5 °F 1031.4 in NE 9.7 mph 20.9 mph 80 % 0.0 in
15:42 10.9 °F 7.6 °F 1031.4 in East 3.2 mph 20.9 mph 80 % 0.0 in
15:47 11.1 °F 8.0 °F 1031.4 in ENE 4.8 mph 17.7 mph 81 % 0.0 in
15:57 11.6 °F 8.3 °F 1031.0 in East 6.4 mph 17.7 mph 80 % 0.0 in
16:02 11.5 °F 8.0 °F 1031.0 in ENE 6.4 mph 17.7 mph 79 % 0.0 in
16:07 11.6 °F 8.1 °F 1031.0 in NNE 9.7 mph 17.7 mph 79 % 0.0 in
16:12 11.6 °F 7.7 °F 1031.0 in NE 6.4 mph 16.1 mph 77 % 0.0 in
16:17 11.7 °F 7.8 °F 1031.0 in ENE 3.2 mph 14.5 mph 77 % 0.0 in
16:22 11.7 °F 8.0 °F 1030.7 in ENE 6.4 mph 14.5 mph 78 % 0.0 in
16:27 11.8 °F 7.9 °F 1031.0 in ENE 6.4 mph 12.9 mph 77 % 0.0 in
16:32 11.9 °F 8.2 °F 1030.7 in NNE 4.8 mph 11.3 mph 78 % 0.0 in
16:37 12.0 °F 8.3 °F 1030.7 in NNE 6.4 mph 11.3 mph 78 % 0.0 in
16:42 12.1 °F 8.2 °F 1030.7 in NNE 8.0 mph 14.5 mph 77 % 0.0 in
16:47 12.2 °F 8.1 °F 1030.7 in NE 9.7 mph 17.7 mph 76 % 0.0 in
16:52 12.3 °F 8.2 °F 1030.7 in NNW 4.8 mph 17.7 mph 76 % 0.0 in
16:57 12.3 °F 8.2 °F 1030.7 in ENE 1.6 mph 14.5 mph 76 % 0.0 in
17:02 12.4 °F 8.3 °F 1030.7 in NNW 8.0 mph 12.9 mph 76 % 0.0 in
17:07 12.4 °F 8.1 °F 1030.4 in NNE 6.4 mph 14.5 mph 75 % 0.0 in
17:17 12.6 °F 8.3 °F 1030.4 in NNE 4.8 mph 14.5 mph 75 % 0.0 in
17:22 12.6 °F 8.5 °F 1030.4 in ENE 8.0 mph 11.3 mph 76 % 0.0 in
17:27 12.6 °F 8.5 °F 1030.4 in ENE 3.2 mph 9.7 mph 76 % 0.0 in
17:32 12.6 °F 8.5 °F 1030.4 in ENE 4.8 mph 9.7 mph 76 % 0.0 in
17:37 12.5 °F 8.6 °F 1030.4 in NE 4.8 mph 9.7 mph 77 % 0.0 in
17:42 12.4 °F 8.5 °F 1030.4 in NE 8.0 mph 8.0 mph 77 % 0.0 in
17:47 12.4 °F 8.5 °F 1030.4 in East 6.4 mph 11.3 mph 77 % 0.0 in
17:52 12.3 °F 8.6 °F 1030.0 in ENE 4.8 mph 11.3 mph 78 % 0.0 in
17:57 12.2 °F 8.7 °F 1030.0 in ENE 1.6 mph 11.3 mph 79 % 0.0 in
18:02 12.2 °F 8.5 °F 1030.0 in East 4.8 mph 11.3 mph 78 % 0.0 in
18:07 12.2 °F 8.5 °F 1030.0 in NE 4.8 mph 8.0 mph 78 % 0.0 in
18:12 12.2 °F 8.7 °F 1030.0 in NE 3.2 mph 8.0 mph 79 % 0.0 in
18:17 12.0 °F 8.5 °F 1030.0 in ENE 1.6 mph 8.0 mph 79 % 0.0 in
18:27 11.8 °F 8.5 °F 1030.0 in NE 1.6 mph 6.4 mph 80 % 0.0 in
18:32 11.6 °F 8.3 °F 1030.0 in NE 3.2 mph 6.4 mph 80 % 0.0 in
18:42 11.3 °F 8.0 °F 1030.4 in NE 4.8 mph 11.3 mph 80 % 0.0 in
18:47 11.1 °F 8.0 °F 1030.0 in NE 3.2 mph 11.3 mph 81 % 0.0 in
18:52 10.9 °F 7.8 °F 1030.0 in Calm   8.0 mph 81 % 0.0 in
18:57 10.8 °F 7.9 °F 1030.0 in NE 1.6 mph 6.4 mph 82 % 0.0 in
19:02 10.7 °F 7.8 °F 1030.0 in NE 1.6 mph 6.4 mph 82 % 0.0 in
19:07 10.6 °F 7.7 °F 1030.0 in Calm   6.4 mph 82 % 0.0 in
19:12 10.4 °F 7.6 °F 1030.0 in NE 3.2 mph 6.4 mph 83 % 0.0 in
19:17 10.3 °F 7.5 °F 1030.0 in NE 1.6 mph 4.8 mph 83 % 0.0 in
19:22 10.2 °F 7.4 °F 1030.0 in NE 6.4 mph 6.4 mph 83 % 0.0 in
19:27 10.2 °F 7.6 °F 1030.0 in NE 4.8 mph 9.7 mph 84 % 0.0 in
19:32 10.2 °F 7.6 °F 1030.0 in NE 4.8 mph 9.7 mph 84 % 0.0 in
19:37 10.1 °F 7.3 °F 1030.0 in North 1.6 mph 9.7 mph 83 % 0.0 in
19:42 9.9 °F 7.3 °F 1030.0 in North 1.6 mph 9.7 mph 84 % 0.0 in
19:47 9.7 °F 7.3 °F 1030.0 in NNW 1.6 mph 9.7 mph 85 % 0.0 in
19:52 9.6 °F 7.2 °F 1030.0 in North 1.6 mph 3.2 mph 85 % 0.0 in
19:57 9.4 °F 7.0 °F 1030.0 in Calm   4.8 mph 85 % 0.0 in
20:02 9.3 °F 7.1 °F 1030.0 in Calm   4.8 mph 86 % 0.0 in
20:07 9.2 °F 7.0 °F 1030.0 in NNW 1.6 mph 4.8 mph 86 % 0.0 in
20:12 9.1 °F 7.1 °F 1030.0 in ENE 3.2 mph 4.8 mph 87 % 0.0 in
20:17 9.1 °F 7.1 °F 1030.0 in North 6.4 mph 6.4 mph 87 % 0.0 in
20:22 9.2 °F 7.1 °F 1030.0 in NNE 14.5 mph 14.5 mph 87 % 0.0 in
20:27 9.3 °F 7.2 °F 1030.0 in NE 11.3 mph 14.5 mph 87 % 0.0 in
20:32 9.4 °F 7.2 °F 1030.0 in NNE 12.9 mph 14.5 mph 86 % 0.0 in
20:37 9.5 °F 7.3 °F 1030.0 in NNE 11.3 mph 17.7 mph 86 % 0.0 in
20:42 9.6 °F 7.4 °F 1030.0 in NNE 9.7 mph 19.3 mph 86 % 0.0 in
20:47 9.4 °F 7.2 °F 1030.0 in NNE 12.9 mph 19.3 mph 86 % 0.0 in
20:57 9.4 °F 7.3 °F 1030.0 in NE 6.4 mph 17.7 mph 87 % 0.0 in
21:02 9.4 °F 7.3 °F 1030.0 in North 4.8 mph 17.7 mph 87 % 0.0 in
21:07 9.3 °F 7.2 °F 1030.0 in NNE 6.4 mph 17.7 mph 87 % 0.0 in
21:12 9.1 °F 7.1 °F 1030.0 in NNE 4.8 mph 16.1 mph 87 % 0.0 in
21:17 9.0 °F 7.1 °F 1030.0 in NE 3.2 mph 16.1 mph 88 % 0.0 in
21:22 8.8 °F 6.9 °F 1030.0 in Calm   11.3 mph 88 % 0.0 in
21:27 8.8 °F 7.1 °F 1030.0 in NNE 6.4 mph 11.3 mph 89 % 0.0 in
21:32 8.9 °F 7.0 °F 1030.0 in NNE 6.4 mph 11.3 mph 88 % 0.0 in
21:37 8.9 °F 7.0 °F 1030.0 in NE 9.7 mph 16.1 mph 88 % 0.0 in
21:42 9.0 °F 7.1 °F 1030.0 in NE 3.2 mph 16.1 mph 88 % 0.0 in
21:47 8.9 °F 7.0 °F 1030.0 in NNE 6.4 mph 16.1 mph 88 % 0.0 in
21:52 8.9 °F 7.0 °F 1030.0 in NNE 8.0 mph 19.3 mph 88 % 0.0 in
22:02 9.1 °F 7.1 °F 1030.0 in NE 6.4 mph 19.3 mph 87 % 0.0 in
22:07 9.0 °F 7.0 °F 1030.0 in NNE 14.5 mph 19.3 mph 87 % 0.0 in
22:12 9.0 °F 7.0 °F 1030.0 in NE 14.5 mph 19.3 mph 87 % 0.0 in
22:17 8.9 °F 6.9 °F 1030.0 in North 4.8 mph 17.7 mph 87 % 0.0 in
22:22 8.8 °F 6.8 °F 1030.0 in NE 12.9 mph 17.7 mph 87 % 0.0 in
22:27 8.8 °F 6.8 °F 1030.0 in NNE 8.0 mph 17.7 mph 87 % 0.0 in
22:32 8.7 °F 6.7 °F 1030.0 in North 9.7 mph 16.1 mph 87 % 0.0 in
22:37 8.6 °F 6.7 °F 1030.0 in NNE 11.3 mph 16.1 mph 88 % 0.0 in
22:42 8.6 °F 6.7 °F 1030.0 in NE 8.0 mph 14.5 mph 88 % 0.0 in
22:47 8.4 °F 6.5 °F 1029.7 in NNE 9.7 mph 14.5 mph 88 % 0.0 in
22:52 8.3 °F 6.4 °F 1029.7 in NNE 6.4 mph 12.9 mph 88 % 0.0 in
22:57 8.2 °F 6.5 °F 1029.7 in NNW 1.6 mph 12.9 mph 89 % 0.0 in
23:02 8.1 °F 6.4 °F 1029.7 in North 1.6 mph 11.3 mph 89 % 0.0 in
23:07 7.9 °F 6.2 °F 1029.7 in NNE 6.4 mph 9.7 mph 89 % 0.0 in
23:12 7.8 °F 6.3 °F 1029.7 in NE 6.4 mph 9.7 mph 90 % 0.0 in
23:17 7.7 °F 6.2 °F 1029.7 in Calm   8.0 mph 90 % 0.0 in
23:22 7.6 °F 6.1 °F 1029.3 in NNE 3.2 mph 8.0 mph 90 % 0.0 in
23:32 7.4 °F 5.9 °F 1029.3 in NNW 1.6 mph 4.8 mph 90 % 0.0 in
23:37 7.4 °F 5.9 °F 1029.3 in Calm   6.4 mph 90 % 0.0 in
23:42 7.3 °F 5.8 °F 1029.3 in NNW 3.2 mph 6.4 mph 90 % 0.0 in
23:47 7.3 °F 5.8 °F 1029.3 in North 3.2 mph 6.4 mph 90 % 0.0 in
23:52 7.2 °F 5.8 °F 1029.3 in Calm   4.8 mph 91 % 0.0 in
23:57 7.1 °F 5.7 °F 1029.3 in Calm   4.8 mph 91 % 0.0 in
Meteo18
Compliments of Weather Underground - 4 mb

Script developed by  Jim McMurry - jmcmurry@mwt.net Adapted for the template by  Wim van der Kuil - Leuven-Template.eu

You find our weather info also at:

European Weather Network

Weather Underground

Equipment we use:

Weather-station
Davis Vue

Weather-program
Meteobridge

Weather-server
Raspberry PI 2 B+

Provider
1 and 1

Davis Vue

Meteobridge

Raspberry PI 2 B+

1 and 1